Weather in Chundzha

Kazakhstan     43˚32′18″N   79˚27′47″E
temp.,
°C
wind,
m/s
gust,
m/s
humid.,
%
clouds,
%
prec.,
mm/h
press.,
hPa
HPBL,
m
29 november, sun
sun2900:00−1˚ssw5765100 0.4 1041100
03:00−2˚ssw456199 0.0 104274
06:00−2˚s466199 0.0 104396
09:00−2˚ssw3457100 0.0 1044112
12:00nnw2152100 0.0 1042494
15:00−1˚nne2262100 0.0 1041667
18:00−3˚se0180100 0.0 104421
21:00−4˚s117895 0.0 104421
30 november, mon
mon3000:00−5˚ese118361 0.0 104225
03:00−6˚ssw227989 0.0 104148
06:00−7˚sw336567 0.0 104261
09:00−7˚ssw11637 0.0 104266
12:00−4˚wsw01568 0.0 1039358
15:00−3˚ene22632 0.0 1038563
18:00−6˚e22841 0.0 104029
21:00−7˚e12860 0.0 104028
1 december, tue
tue100:00−8˚ese118414 0.0 103921
03:00−9˚ssw11830 0.0 103821
06:00−9˚sw11740 0.0 103821
09:00−8˚wsw11660 0.0 103829
12:00−5˚nne11572 0.0 1034337
15:00−4˚ese225893 0.0 1033346
18:00−6˚sw126394 0.0 103530
21:00−6˚s126497 0.0 103631
2 december, wed
wed200:00−8˚ese126867 0.0 103624
03:00−8˚sw116824 0.0 103521
06:00−8˚w126559 0.0 103521
09:00−7˚wnw1160100 0.0 103421
12:00−4˚nnw1149100 0.0 1032185
15:00−3˚nnw1147100 0.0 1030214
18:00−4˚ne1153100 0.1 103131
21:00−5˚e1159100 0.1 103021
3 december, thu
thu300:00−5˚e1165100 0.1 103039
03:00−5˚ssw0159100 0.0 102924
06:00−4˚n0161100 0.0 102821
09:00−3˚nne1165100 0.1 102867
12:00−2˚ne226397 0.1 1026216
15:00−1˚ne116935 0.0 1025251
18:00−4˚sse008519 0.0 102621
21:00−3˚ene119099 0.0 102524